www.pogodaiklimat.ru

АРХИВ ПОГОДЫ в Чадроне

Время (UTC), дата Ветер
(напр.,м/с)
 
Видим.   Явления Облачность Т
(С)
Тd
(С)
f
(%)
Тe
(С)
Тes
(С)
Комфортность

P
(гПа)

Po
(гПа)
Тmin
(С)
Tmax
(С)
R
(мм)
SD
(см)
16:53 25.03 С  11 км    10/10 120 м  +3.3  +2.8  97  -1  -1    1026.7  907.6  +2.2  +5.6     
17:08 25.03 СЗ  13 км    10/10 150 м  +3.3  +2.8  97  -1  -1      907.6         
17:53 25.03 СЗ  14 км  слабый дождь  10/10 180 м  +3.9  +2.8  93  0  0    1026.8  907.9         
18:42 25.03 СЗ  16 км    10/10 300 м  +5.0  +3.3  89  +1  +1      907.6         
18:53 25.03 С  16 км    10/10 300 м  +5.0  +3.3  89  +1  +1    1026.5  907.6         
19:53 25.03 нст  16 км    10/10 390 м  +7.2  +4.4  82  +6  +6    1025.6  907.0         
20:15 25.03 СВ  16 км    5/5 420 м  +8.3  +4.4  76  +5  +9      907.0         
20:29 25.03 СВ  16 км    8/8 540 м  +7.8  +4.4  79  +5  +7      907.0         
20:53 25.03 СВ  16 км    10/10 480 м  +7.8  +4.4  79  +4  +4    1025.5  907.3         
21:36 25.03 СВ  16 км    8/8 720 м  +7.8  +4.4  79  +5  +6      907.3         
21:53 25.03 СВ  16 км    10/10 1020 м  +7.8  +4.4  79  +5  +5    1025.6  907.3         
22:53 25.03 В  16 км    2/2 1110 м  +8.3  +4.4  76  +7  +10    1025.7  907.3  +3.3  +8.3     
23:53 25.03 В  16 км    ясно  +5.6  +3.9  89  +2  +2    1026.3  907.6         
00:53 26.03 СВ  16 км    5/5 1800 м  +3.9  +2.8  93  -1  -1    1026.6  907.6         
01:53 26.03 СВ  11 км    ясно  +2.2  +1.7  96  -2  -2    1026.6  907.6         
02:53 26.03 СВ  6 км  дымка  ясно  +1.7  +1.7  100  -3  -3    1027.1  907.9         
03:21 26.03 С  4 км  дымка  ясно  +1.1  +1.1  100  -3  -3      907.9         
03:42 26.03 СВ  3 км  дымка  2/2 30 м  +0.6  +0.6  100  -4  -4      907.9         
03:53 26.03 СВ  2 км  дымка  5/5 30 м  +0.6  +0.6  100  -3  -3    1026.9  907.6         
03:56 26.03 СВ  1 км  дымка  ?/?  +0.6  +0.6  100  -3  -3      907.6         
04:08 26.03   400 м  туман  ?/?  0.0  0.0  100  -1  -1      907.6         
04:53 26.03 ЮЗ  400 м  туман  ?/?  0.0  0.0  100  -5  -5    1027.2  907.6  -1.1  +8.3     
05:53 26.03 ЮЗ  400 м  туман  ?/?  +0.6  +0.6  100  -5  -5    1026.6  907.3         
06:07 26.03 ЮЗ  400 м  туман  ?/?  +0.6  +0.6  100  -4  -4      907.0         
06:53 26.03   400 м  туман  ?/?  0.0  0.0  100  -1  -1    1025.9  906.7         
07:10 26.03   400 м  туман  ?/?  0.0  0.0  100  -1  -1      906.7         
07:53 26.03   400 м  переохлажденный туман  ?/?  -1.1  -1.1  100  -3  -3    1025.1  906.4         
08:15 26.03   800 м  переохлажденный туман  ?/?  -1.7  -2.2  96  -3  -3      906.1         
08:53 26.03   400 м  переохлажденный туман  ?/?  -1.7  -2.2  96  -3  -3    1024.2  905.5         
09:41 26.03   800 м  переохлажденный туман  ?/?  -2.8  -2.8  100  -4  -4      905.2         
09:50 26.03   1 км  дымка  ясно  -3.0  -3.0  100  -4  -4      904.9         
09:53 26.03   2 км  дымка  ясно  -2.8  -3.3  96  -4  -4    1023.8  904.9         
10:00 26.03   3 км  дымка  5/5 30 м  -2.8  -3.3  96  -4  -4      904.9         
10:04 26.03   3 км  дымка  8/8 30 м  -2.8  -3.3  96  -4  -4      904.9         
10:12 26.03   13 км    5/5 30 м  -2.8  -3.3  96  -4  -4      904.9         
10:53 26.03   14 км    ясно  -3.3  -3.9  96  -5  -5    1023.5  904.9  -3.3  +0.6     
11:53 26.03 С  13 км    ясно  -2.2  -2.8  96  -6  -6    1023.3  904.3         
12:53 26.03   16 км    ясно  -1.1  -1.1  100  -3  -2    1022.9  904.0         
13:53 26.03 З  16 км    ясно  +3.3  +2.2  92  +1  +2    1022.2  903.7         
14:53 26.03   16 км    ясно  +5.6  +3.3  85  +5  +10    1021.4  903.1         
15:53 26.03 СЗ  16 км    ясно  +10.0  +4.4  68  +9  +17    1020.3  902.8         
16:53 26.03 ЮЗ  16 км    ясно  +14.4  +2.2  44  +12  +14    1019.2  902.2  -3.3  +15.0     
17:53 26.03 ЮЗ  16 км    ясно  +16.1  +1.1  36  +15  +19    1018.1  901.3         
18:53 26.03 ЮЗ  16 км    ясно  +18.3  0.0  29  +17  +20    1016.6  900.4         
19:53 26.03 ЮЗ  16 км    ясно  +18.3  -1.7  26  +18  +20    1015.8  899.5         
20:53 26.03 ЮЗ  16 км    ясно  +18.3  -1.1  27  +18  +20    1015.3  898.9         
21:53 26.03 ЮЗ  16 км    ясно  +20.0  -1.1  24  +20  +24    1014.3  898.3         
22:53 26.03 Ю  16 км    ясно  +16.1  +1.1  36  +15  +17    1014.1  897.4  +14.4  +20.0     

 

Местоположение метеостанции Chadron Municipal Airport: широта 42.8375 долгота -103.0953 высота над уровнем моря 1005 м.

В архиве по умолчанию представлена погода в Чадроне за последние 1-2 суток. Обновление информации о фактической погоде в базе происходит ежечасно! Архивные данные за месяц целиком и за предыдущие месяцы Вы можете получить, выбрав интересующий диапазон дат из раскрывающегося списка и нажав кнопку "Ввод!".

Внимание! Архив погоды МЕТАР в базе сайта в настоящее время начинается c 1 января 2011 г. Нет смысла пытаться выбрать более раннюю дату.

Внимание! Время в таблицах - всемирное. Для получения местного времени необходимо прибавить поправку, которая в Чадроне равна -7 ч.

Ветер - указаны скорость ветра в м/с и направление, откуда дует ветер: С - северный, СВ - северо-восточный, В - восточный, ЮВ - юго-восточный, Ю - южный, ЮЗ - юго-западный, З - западный, СЗ - северо-западный.
Видимость - горизонтальная дальность видимости в метрах или километрах. При видимости от 1 до 10 км при отсутствии осадков обычно наблюдается дымка, при ухудшении видимости до 1 км и менее - туман. В сухую погоду видимость может ухудшаться дымом, пылью или мглою.
Атмосферные явления - указаны явления, наблюдавшиеся в указанный момент времени.
Облачность - указаны через наклонную черту верхняя и нижняя облачность в баллах и высота нижней границы облаков в метрах. Внимание: облачность, как и прочие метеорологические величины в США измеряются автоматическими метеостанциями. Указанные значения в баллах носят условный характер и показывают процент времени, в течение которого, в среднем, лазерный луч высотомера отражался от облаков обратно.
T - Температура воздуха - температура, измеренная на высоте 2 м над землей.
Td - Температура точки росы - температура, при понижении до которой содержащийся в воздухе водяной пар достигнет насыщения.
f - Относительная влажность воздуха - влажноcть воздуха, измеренная на высоте 2 м над землей.
Te - Эффективная температура - температура, которую ощущает одетый по сезону человек в тени. Характеристика душности погоды. При расчете учитывается влияние влажности воздуха и скорости ветра на теплоощущения человека.
Tes - Эффективная температура на солнце - температура, которую ощущает человек, с поправкой на солнечный нагрев. Характеристика знойности погоды. Зависит от высоты солнца над горизонтом, облачности и скорости ветра. Ночью, в пасмурную погоду, а также при ветре 12 м/с и более поправка равна нулю.
P - Атмосферное давление - приведенное к уровню моря атмосферное давление.
Po - Атмосферное давление - измеренное на уровне метеостанции атмосферное давление.
Tmin - Минимальная температура - минимум температуры воздуха на высоте 2 м над землей.
Tmax - Максимальная температура - максимум температуры воздуха на высоте 2 м над землей.
R - Количество осадков - Количество выпавших осадков за 3 или 6 часов, мм.
SD - Снежный покров - Высота снежного покрова, см.